[[{"header":{"parameterUnit":"m.s-1","parameterCategory":2,"la1":30.2991,"la2":30.254,"lo1":-89.0895,"lo2":-89.0444,"dy":0.0017,"dx":0.0017,"nx":28,"ny":28,"refTime":"2024-05-21T09:00:00:Z","depth":"0","parameterNumber":2,"parameterNumberName":"U-component_of_CURRENTS"},"data":[0,0,0,0,0,0,0,0,0,0,0,0,0,0,0,0,0,0,0,0,0,0,0,0,0,0,0,0,0,0,0,0,0,0,0,0,0,0,0,0,0,0,0,0,0,0,0,0,0,0,0,0,0,0,0,0,0,0,0.1968,0.1968,0,0.1948,0.1947,0.1947,0.1936,0.1937,0.1937,0.1937,0.1877,0.1875,0.1873,0,0,0,0,0,0,0,0,0,0,0,0,0,0.1947,0.1948,0.1968,0.1968,0.1969,0.1948,0.1947,0.1946,0.1936,0.1937,0.1937,0.1937,0.1878,0.1875,0.1873,0,0,0,0,0,0,0,0,0,0,0,0,0,0.1941,0.1948,0.1968,0.1964,0.1963,0.1948,0.1947,0.1946,0.1936,0.1937,0.1937,0.1938,0.1878,0.1875,0.1873,0.1844,0,0,0.1864,0.1863,0,0,0,0,0,0,0,0,0.1941,0.1941,0.1964,0.1964,0.1964,0.1948,0.1918,0.1912,0.1936,0.1942,0.1937,0.1938,0.1899,0.1895,0.1885,0.1842,0.1839,0.1864,0.1862,0.1861,0.186,0,0,0,0,0,0,0,0.1942,0.1942,0.1956,0.1964,0.1964,0.1945,0.1945,0.1916,0.1914,0.1942,0.1942,0.1946,0.1898,0.1888,0.1883,0.1838,0.1864,0.1861,0.1859,0.1858,0.1857,0.1858,0,0,0,0,0,0,0.1954,0.1942,0.1957,0.1956,0.1958,0.1946,0.1945,0.195,0.1916,0.1912,0.1945,0.1945,0.1892,0.1887,0.1881,0.1923,0.1861,0.1858,0.1856,0.1855,0.1857,0.1859,0,0,0,0,0,0,0.1954,0.1956,0.1958,0.1952,0.1951,0.1946,0.1951,0.1949,0.1952,0.1919,0.1915,0.1952,0.1892,0.1885,0.1881,0.1918,0.1857,0.1854,0.1853,0.1856,0.1858,0.1958,0,0,0,0,0,0,0.1953,0.1956,0.1959,0.1953,0.1952,0.1968,0.1951,0.1948,0.1954,0.1954,0.1923,0.1917,0.1892,0.1885,0.1878,0.1913,0.1852,0.1851,0.1854,0.1857,0.1952,0.1963,0.1973,0,0,0,0,0,0.1953,0.1957,0.196,0.1961,0.1959,0.1969,0.1967,0.1961,0.1954,0.1963,0.1948,0.1919,0.1901,0.1884,0.1875,0.191,0.1849,0.1853,0.1857,0.1948,0.1961,0.1973,0,0,0,0,0,0,0.1947,0.1957,0.1959,0.1966,0.1977,0.1969,0.1971,0.1969,0.1962,0.196,0.1928,0.1922,0.1938,0.1906,0.1889,0.1921,0.1875,0.1877,0.1947,0.1959,0.1969,0.2006,0.1849,0,0,0,0,0,0.195,0.1956,0.1968,0.1974,0.1982,0.1978,0.1979,0.1981,0.1976,0.1973,0.1954,0.194,0.1943,0.1937,0.1926,0.1929,0.1957,0.1951,0.1961,0.197,0.1995,0.2076,0.2097,0.1871,0.1871,0.1871,0,0,0.1946,0.1955,0.1956,0.1974,0.1976,0.1998,0.198,0.1992,0.2013,0.1966,0.198,0.1971,0.1953,0.1972,0.1976,0.195,0.2051,0.1975,0.1982,0.2004,0.2083,0.2105,0.2125,0.1874,0.1873,0.1873,0,0,0.1953,0.1956,0.197,0.1985,0.2005,0.201,0.2021,0.2026,0.2034,0.2046,0.2033,0.2057,0.2028,0.2048,0.2048,0.2106,0.2105,0.2093,0.217,0.2249,0.2269,0.2287,0.2364,0.2388,0.2095,0.2096,0.2096,0,0.1951,0.1975,0.1976,0.2001,0.2021,0.2023,0.2054,0.2061,0.2066,0.2088,0.2065,0.2094,0.2077,0.2133,0.2163,0.2134,0.2174,0.2123,0.2266,0.2284,0.23,0.2375,0.2401,0.2101,0.21,0.21,0.2099,0,0.1975,0.1998,0.201,0.2047,0.2066,0.2091,0.2114,0.2138,0.2146,0.216,0.2214,0.2206,0.2229,0.2233,0.2215,0.2324,0.2314,0.2273,0.2239,0.233,0.2402,0.2427,0.2108,0.2107,0.2105,0.2104,0,0,0.1965,0.2018,0.2023,0.2053,0.2097,0.2114,0.2166,0.222,0.2267,0.2279,0.2352,0.2373,0.2376,0.238,0.2368,0.2441,0.2597,0.2415,0.2417,0.2502,0.2786,0.2773,0.2798,0.2582,0.2586,0.259,0.2794,0,0.199,0.2041,0.2068,0.2124,0.2156,0.2192,0.2238,0.2285,0.2328,0.2396,0.2426,0.2477,0.2426,0.2455,0.2521,0.2575,0.2665,0.2547,0.2677,0.2681,0.2667,0.2827,0.271,0.2882,0.2818,0.2822,0.2825,0,0.2011,0.2046,0.2102,0.2174,0.2192,0.2228,0.2321,0.2364,0.2461,0.25,0.2567,0.2586,0.2691,0.2637,0.2794,0.272,0.2775,0.2817,0.2824,0.2798,0.2715,0.2778,0.2929,0.2855,0.2862,0.2859,0.2857,0,0.1999,0.2072,0.2118,0.214,0.2218,0.2261,0.2307,0.2396,0.2445,0.258,0.2643,0.274,0.28,0.289,0.2951,0.2896,0.3135,0.3058,0.3105,0.3104,0.3025,0.3009,0.3129,0.3208,0.3208,0.3207,0.3207,0,0.2017,0.2054,0.2115,0.214,0.2198,0.2257,0.2334,0.2405,0.2515,0.2588,0.2686,0.2775,0.2872,0.299,0.3036,0.316,0.3201,0.3179,0.3179,0.3056,0.3041,0.2984,0.2929,0.3215,0.3213,0.3212,0.321,0,0.1994,0.2039,0.2088,0.2168,0.2191,0.2228,0.232,0.2381,0.2498,0.2611,0.2662,0.2837,0.3006,0.3101,0.3272,0.327,0.3307,0.3415,0.3267,0.3247,0.3194,0.3148,0.3167,0.3066,0.3522,0.3524,0.3525,0,0.1987,0.2009,0.2078,0.2101,0.2138,0.2197,0.224,0.2353,0.2426,0.2635,0.2699,0.291,0.3035,0.3296,0.3379,0.3512,0.3374,0.3462,0.3336,0.3239,0.3189,0.3028,0.2928,0.3278,0.3277,0.3276,0.3275,0,0.197,0.199,0.2029,0.2066,0.211,0.2149,0.223,0.2277,0.2422,0.2537,0.2717,0.2845,0.3118,0.3233,0.3416,0.346,0.3291,0.3449,0.3391,0.3075,0.2866,0.275,0.3092,0.3267,0.3268,0.3269,0.3269,0.3269,0.1948,0.1956,0.1999,0.2028,0.2067,0.2096,0.2106,0.2211,0.2305,0.2461,0.2649,0.282,0.3054,0.3314,0.3335,0.3328,0.3278,0.3241,0.322,0.3086,0.291,0.3249,0.3383,0.3385,0.3386,0.3387,0.3388,0,0.191,0.1926,0.1958,0.1983,0.1987,0.2031,0.2091,0.2095,0.2167,0.2366,0.2518,0.2793,0.294,0.309,0.3212,0.3124,0.2928,0.3034,0.2773,0.2704,0.3067,0.2975,0.2973,0.2973,0.2973,0.2973,0.2973,0.2973,0.1898,0.1904,0.1914,0.1895,0.1906,0.188,0.1888,0.1919,0.2027,0.22,0.2368,0.2569,0.2864,0.3069,0.3044,0.2957,0.27,0.2591,0.2568,0.2822,0.2837,0.2851,0.2753,0.2705,0.2705,0.2065,0.206,0.2057]},{"header":{"parameterUnit":"m.s-1","parameterCategory":2,"la1":30.2991,"la2":30.254,"lo1":-89.0895,"lo2":-89.0444,"dy":0.0017,"dx":0.0017,"nx":28,"ny":28,"refTime":"2024-05-21T09:00:00:Z","depth":"0","parameterNumber":3,"parameterNumberName":"V-component_of_CURRENTS"},"data":[0,0,0,0,0,0,0,0,0,0,0,0,0,0,0,0,0,0,0,0,0,0,0,0,0,0,0,0,0,0,0,0,0,0,0,0,0,0,0,0,0,0,0,0,0,0,0,0,0,0,0,0,0,0,0,0,0,0,-0.0131,-0.0132,0,-0.0166,-0.0166,-0.0167,-0.0172,-0.0172,-0.0171,-0.0171,-0.019,-0.019,-0.0191,0,0,0,0,0,0,0,0,0,0,0,0,0,-0.0081,-0.0082,-0.0131,-0.0132,-0.0132,-0.0166,-0.0166,-0.0167,-0.0172,-0.0172,-0.0171,-0.0171,-0.0189,-0.019,-0.0191,0,0,0,0,0,0,0,0,0,0,0,0,0,-0.0107,-0.0082,-0.0131,-0.014,-0.0141,-0.0166,-0.0166,-0.0167,-0.0172,-0.0172,-0.0171,-0.0171,-0.0189,-0.019,-0.0191,-0.0205,0,0,-0.0194,-0.0195,0,0,0,0,0,0,0,0,-0.0106,-0.0109,-0.0138,-0.0139,-0.014,-0.0165,-0.0155,-0.0179,-0.0172,-0.0159,-0.0171,-0.0171,-0.0181,-0.0182,-0.0189,-0.0206,-0.0206,-0.0194,-0.0195,-0.0196,-0.0196,0,0,0,0,0,0,0,-0.0104,-0.0108,-0.0144,-0.0138,-0.014,-0.0146,-0.0149,-0.016,-0.0171,-0.016,-0.0161,-0.0166,-0.0181,-0.0188,-0.0189,-0.0207,-0.0194,-0.0195,-0.0196,-0.0196,-0.0233,-0.0234,0,0,0,0,0,0,-0.0101,-0.0106,-0.0143,-0.0145,-0.0123,-0.0147,-0.015,-0.0157,-0.0171,-0.0173,-0.0167,-0.0166,-0.0186,-0.0188,-0.019,-0.0194,-0.0196,-0.0197,-0.0197,-0.0233,-0.0233,-0.0234,0,0,0,0,0,0,-0.01,-0.0104,-0.0142,-0.0127,-0.0132,-0.0148,-0.0155,-0.0158,-0.0165,-0.0176,-0.0177,-0.0172,-0.0186,-0.0188,-0.02,-0.0196,-0.0197,-0.0198,-0.0232,-0.0233,-0.0233,-0.0211,0,0,0,0,0,0,-0.0099,-0.0104,-0.0105,-0.0127,-0.0133,-0.0154,-0.0156,-0.0159,-0.017,-0.017,-0.0181,-0.0183,-0.0186,-0.0198,-0.0201,-0.0197,-0.0199,-0.0232,-0.0233,-0.0233,-0.0212,-0.0211,-0.0211,0,0,0,0,0,-0.0097,-0.0096,-0.0105,-0.0109,-0.0135,-0.0155,-0.0158,-0.0168,-0.017,-0.0173,-0.0182,-0.0182,-0.0204,-0.0199,-0.0202,-0.0199,-0.0232,-0.0233,-0.0233,-0.0212,-0.0211,-0.0211,0,0,0,0,0,0,-0.0071,-0.0097,-0.0107,-0.0114,-0.0134,-0.0156,-0.0156,-0.017,-0.018,-0.0176,-0.0188,-0.019,-0.0199,-0.0206,-0.0201,-0.0213,-0.0218,-0.0219,-0.02,-0.02,-0.0199,-0.017,-0.02,0,0,0,0,0,-0.0068,-0.0076,-0.0104,-0.0109,-0.0116,-0.0139,-0.0147,-0.0157,-0.0171,-0.0175,-0.0186,-0.0196,-0.0206,-0.0208,-0.0219,-0.0226,-0.0222,-0.0226,-0.0226,-0.0225,-0.0205,-0.0207,-0.0204,-0.0236,-0.0236,-0.0236,0,0,-0.0059,-0.0075,-0.0079,-0.0105,-0.0117,-0.0119,-0.0142,-0.0153,-0.015,-0.0175,-0.0174,-0.0196,-0.0209,-0.0215,-0.0219,-0.0218,-0.0216,-0.0226,-0.0225,-0.0204,-0.0207,-0.0204,-0.0201,-0.0237,-0.0237,-0.0237,0,0,-0.0038,-0.0059,-0.0055,-0.0069,-0.009,-0.0105,-0.0109,-0.0134,-0.014,-0.0154,-0.0167,-0.0186,-0.0205,-0.0209,-0.0214,-0.0219,-0.0217,-0.0228,-0.0195,-0.0198,-0.0195,-0.0192,-0.0186,-0.0183,-0.0223,-0.0223,-0.0223,0,-0.0024,-0.0023,-0.0057,-0.0053,-0.0055,-0.0096,-0.0085,-0.0101,-0.0127,-0.0123,-0.0148,-0.0173,-0.0197,-0.0189,-0.0196,-0.0215,-0.0212,-0.0195,-0.0195,-0.0192,-0.0189,-0.0184,-0.0181,-0.0222,-0.0222,-0.0222,-0.0222,0,0.0004,0.0005,0.0007,-0.0001,-0.0011,-0.001,-0.0036,-0.0042,-0.0063,-0.0081,-0.0091,-0.0133,-0.0141,-0.0164,-0.0182,-0.0174,-0.0177,-0.0197,-0.0191,-0.0184,-0.018,-0.0177,-0.022,-0.0221,-0.0221,-0.0221,0,0,0.0042,0.0031,0.0034,0.0047,0.002,0.0021,0.0023,0.002,0.0042,-0.001,0.0013,-0.0042,-0.0071,-0.0079,-0.0113,-0.0125,-0.0124,-0.0149,-0.015,-0.0133,-0.0118,-0.0138,-0.0136,-0.0142,-0.0141,-0.0141,-0.0124,0,0.0081,0.0108,0.0086,0.0116,0.0131,0.0102,0.0113,0.0102,0.0086,0.0094,0.0041,0.0042,-0.0036,-0.0035,-0.0067,-0.0099,-0.0113,-0.0125,-0.0136,-0.0136,-0.0145,-0.0132,-0.0143,-0.013,-0.0121,-0.0121,-0.012,0,0.0122,0.0137,0.0173,0.0192,0.0197,0.0206,0.0233,0.0238,0.0231,0.022,0.0196,0.0155,0.0128,0.0059,0.0001,-0.0,-0.0055,-0.0093,-0.0093,-0.011,-0.0148,-0.0136,-0.0125,-0.0292,-0.0115,-0.0116,-0.0116,0,0.0182,0.0202,0.0237,0.0241,0.025,0.0272,0.0282,0.0283,0.0317,0.0313,0.0342,0.0274,0.0276,0.0186,0.0082,0.0052,0.0027,-0.0025,-0.0093,-0.0095,-0.0103,-0.0107,-0.0242,-0.006,-0.006,-0.006,-0.006,0,0.0234,0.0267,0.0273,0.0297,0.0353,0.0337,0.0398,0.0404,0.0438,0.0504,0.0416,0.0465,0.031,0.0266,0.0141,0.0044,0.007,-0.0071,-0.0088,-0.0098,-0.0101,-0.0247,-0.0343,-0.006,-0.006,-0.006,-0.006,0,0.029,0.0292,0.0342,0.0368,0.0382,0.0426,0.0484,0.0537,0.0558,0.065,0.0663,0.0632,0.0578,0.0418,0.0298,0.015,-0.0054,-0.0001,-0.0,-0.0018,-0.0261,-0.0355,-0.048,-0.0555,-0.0074,-0.0075,-0.0075,0,0.0323,0.0352,0.0399,0.0438,0.0454,0.0512,0.0561,0.0595,0.0669,0.0767,0.0834,0.0814,0.0827,0.0627,0.0359,0.0146,-0.0026,-0.002,-0.0096,-0.0263,-0.038,-0.0453,-0.0513,-0.0099,-0.0099,-0.01,-0.01,0,0.0391,0.0403,0.0444,0.0522,0.058,0.0649,0.0733,0.0819,0.089,0.0989,0.113,0.1161,0.0958,0.0744,0.0416,0.0239,-0.0155,-0.0034,-0.0207,-0.0406,-0.0491,-0.0574,-0.0119,-0.0103,-0.0103,-0.0103,-0.0102,-0.0102,0.0447,0.0489,0.0544,0.0618,0.069,0.0804,0.0899,0.101,0.1167,0.1354,0.1356,0.1441,0.1078,0.0636,0.0365,-0.0166,-0.0166,-0.0332,-0.0426,-0.048,-0.0577,-0.0126,-0.0136,-0.0136,-0.0136,-0.0136,-0.0136,0,0.0522,0.0565,0.0639,0.0741,0.0841,0.086,0.1028,0.1143,0.1357,0.1512,0.1641,0.1516,0.107,0.0585,-0.0123,-0.049,-0.0639,-0.0697,-0.0817,-0.0855,-0.0449,-0.0477,-0.0562,-0.0562,-0.0561,-0.0561,-0.0561,-0.0561,0.057,0.0651,0.0685,0.0858,0.0937,0.1104,0.1218,0.1385,0.1527,0.1727,0.179,0.1808,0.1432,0.0178,-0.0691,-0.0898,-0.1139,-0.12,-0.1315,-0.1066,-0.104,-0.1015,-0.1066,-0.1272,-0.1273,-0.1683,-0.1688,-0.1691]}],[{"header":{"parameterUnit":"m.s-1","parameterCategory":2,"la1":30.2991,"la2":30.254,"lo1":-89.0895,"lo2":-89.0444,"dy":0.0017,"dx":0.0017,"nx":28,"ny":28,"refTime":"2024-05-21T09:00:00:Z","depth":"2","parameterNumber":2,"parameterNumberName":"U-component_of_CURRENTS"},"data":[0,0,0,0,0,0,0,0,0,0,0,0,0,0,0,0,0,0,0,0,0,0,0,0,0,0,0,0,0,0,0,0,0,0,0,0,0,0,0,0,0,0,0,0,0,0,0,0,0,0,0,0,0,0,0,0,0,0,0.2063,0.2063,0,0.2053,0.2053,0.2052,0.2041,0.2041,0.2041,0.2041,0.1986,0.1985,0.1983,0,0,0,0,0,0,0,0,0,0,0,0,0,0.2,0.2001,0.2063,0.2063,0.2063,0.2053,0.2053,0.2052,0.2041,0.2041,0.2041,0.2041,0.1987,0.1985,0.1983,0,0,0,0,0,0,0,0,0,0,0,0,0,0.2009,0.2002,0.2062,0.2059,0.2059,0.2053,0.2053,0.2052,0.2041,0.2041,0.2041,0.2041,0.1987,0.1985,0.1983,0.196,0,0,0.1975,0.1974,0,0,0,0,0,0,0,0,0.2008,0.201,0.206,0.206,0.206,0.2052,0.2011,0.2021,0.204,0.2043,0.2041,0.2042,0.2007,0.2003,0.1995,0.1958,0.1956,0.1975,0.1973,0.1972,0.1971,0,0,0,0,0,0,0,0.2008,0.201,0.2054,0.206,0.206,0.2035,0.2036,0.2012,0.2019,0.2043,0.2043,0.2049,0.2006,0.1997,0.1993,0.1955,0.1975,0.1973,0.1971,0.197,0.1979,0.1981,0,0,0,0,0,0,0.2021,0.201,0.2055,0.2054,0.2039,0.2036,0.2038,0.2051,0.202,0.2017,0.2049,0.2048,0.2001,0.1996,0.1991,0.2033,0.1972,0.197,0.1968,0.1978,0.198,0.1982,0,0,0,0,0,0,0.202,0.2026,0.2055,0.2035,0.2038,0.2038,0.2052,0.205,0.2053,0.2026,0.2021,0.2054,0.2001,0.1995,0.1992,0.2028,0.1969,0.1966,0.1976,0.1978,0.1981,0.2071,0,0,0,0,0,0,0.2018,0.2025,0.2032,0.2036,0.2039,0.2068,0.2052,0.205,0.2057,0.2057,0.2029,0.2024,0.2001,0.1996,0.1989,0.2023,0.1964,0.1973,0.1977,0.198,0.2066,0.2077,0.2086,0,0,0,0,0,0.2016,0.2026,0.2032,0.2037,0.2051,0.2069,0.2068,0.2065,0.2057,0.2066,0.2052,0.2025,0.2013,0.1995,0.1987,0.2021,0.1972,0.1976,0.198,0.2062,0.2074,0.2085,0,0,0,0,0,0,0.2001,0.2027,0.2033,0.2051,0.2068,0.2069,0.2072,0.2072,0.2066,0.2063,0.2034,0.2029,0.2046,0.2018,0.1999,0.2036,0.1993,0.1995,0.2058,0.2069,0.2079,0.2112,0.1962,0,0,0,0,0,0.2004,0.2019,0.2042,0.2057,0.2067,0.2071,0.2075,0.2079,0.2078,0.2076,0.2059,0.2048,0.2053,0.2049,0.2041,0.2047,0.2064,0.2069,0.2079,0.2087,0.2111,0.2179,0.2198,0.1995,0.1995,0.1995,0,0,0.1999,0.2018,0.2024,0.2055,0.2063,0.2088,0.2073,0.209,0.2112,0.2069,0.2083,0.2077,0.2063,0.2084,0.2089,0.2065,0.2153,0.2092,0.21,0.2119,0.2185,0.2205,0.2223,0.1997,0.1997,0.1996,0,0,0.2006,0.2021,0.2038,0.206,0.2088,0.2097,0.2109,0.2121,0.2129,0.2144,0.2133,0.2159,0.2136,0.2156,0.2159,0.2217,0.2205,0.2206,0.2279,0.2344,0.2362,0.2378,0.2423,0.2442,0.2209,0.2209,0.2209,0,0.2001,0.2032,0.2045,0.2075,0.21,0.2108,0.2141,0.2151,0.2161,0.2181,0.2162,0.2196,0.2183,0.224,0.2268,0.2243,0.2267,0.2232,0.2359,0.2375,0.239,0.2432,0.2452,0.2214,0.2213,0.2213,0.2212,0,0.2025,0.2054,0.2069,0.2115,0.2142,0.2169,0.2201,0.2221,0.2231,0.2249,0.2302,0.2301,0.2328,0.2333,0.2318,0.2417,0.2396,0.2366,0.2332,0.2417,0.2455,0.2474,0.2221,0.2219,0.2218,0.2216,0,0,0.2003,0.2073,0.2076,0.2107,0.2168,0.2188,0.2243,0.2296,0.2335,0.2357,0.2424,0.2454,0.2463,0.247,0.2463,0.2526,0.2649,0.2497,0.2498,0.2547,0.279,0.2713,0.2726,0.2641,0.2645,0.2649,0.2774,0,0.202,0.2076,0.2115,0.2172,0.2206,0.2251,0.2301,0.2351,0.2391,0.2453,0.2494,0.2546,0.251,0.2539,0.2599,0.2632,0.2705,0.2618,0.2697,0.2699,0.2626,0.2748,0.2539,0.2629,0.2793,0.2796,0.2798,0,0.2032,0.2071,0.2133,0.2209,0.2229,0.2269,0.2357,0.24,0.2497,0.2535,0.2609,0.2638,0.2737,0.2697,0.2818,0.2761,0.2798,0.2825,0.2829,0.2744,0.266,0.2571,0.2657,0.283,0.2827,0.2825,0.2823,0,0.2004,0.208,0.2128,0.2155,0.2246,0.2287,0.2332,0.2425,0.2473,0.2599,0.2658,0.2759,0.2813,0.2889,0.293,0.2892,0.3063,0.3007,0.2979,0.2972,0.2805,0.2776,0.3131,0.3131,0.3131,0.3131,0.313,0,0.2011,0.2046,0.2115,0.2143,0.2198,0.2269,0.2341,0.2406,0.2519,0.2591,0.269,0.2777,0.2869,0.296,0.2994,0.3044,0.3112,0.3033,0.302,0.2827,0.2801,0.2972,0.2952,0.3135,0.3134,0.3133,0.3132,0,0.1983,0.2033,0.208,0.2162,0.219,0.2223,0.2326,0.2377,0.249,0.2599,0.2651,0.2812,0.2933,0.301,0.3141,0.3108,0.3177,0.318,0.2939,0.2895,0.3027,0.301,0.3175,0.3174,0.3173,0.3172,0.3171,0,0.1975,0.1997,0.2065,0.2091,0.2133,0.2192,0.2238,0.235,0.2413,0.2611,0.2666,0.2838,0.2929,0.308,0.3107,0.317,0.3201,0.2978,0.2873,0.3072,0.3042,0.3027,0.3012,0.2686,0.2682,0.2678,0.2675,0,0.1957,0.1975,0.2018,0.2059,0.2104,0.2143,0.2221,0.2264,0.2404,0.2504,0.2659,0.2758,0.2919,0.2897,0.2966,0.2968,0.2945,0.2901,0.3211,0.2695,0.2619,0.2586,0.2587,0.2641,0.2645,0.2647,0.2649,0.265,0.1938,0.1948,0.1996,0.2028,0.2066,0.2089,0.2106,0.2197,0.2278,0.239,0.2541,0.2601,0.2676,0.2683,0.265,0.2635,0.2823,0.2687,0.2696,0.271,0.2619,0.2543,0.2535,0.2537,0.254,0.2542,0.2544,0,0.1905,0.193,0.1962,0.1991,0.1992,0.2038,0.2091,0.2094,0.2152,0.225,0.234,0.2197,0.2213,0.2291,0.2236,0.2258,0.2214,0.2154,0.2074,0.2112,0.2145,0.202,0.178,0.1777,0.1774,0.1771,0,0,0.1905,0.1915,0.1922,0.1908,0.1928,0.1921,0.1934,0.1948,0.1998,0.1954,0.1947,0.2101,0.2227,0.195,0.1954,0.1856,0.1957,0.1791,0.2417,0.2362,0.239,0.2482,0.2339,0,0,0,0,0]},{"header":{"parameterUnit":"m.s-1","parameterCategory":2,"la1":30.2991,"la2":30.254,"lo1":-89.0895,"lo2":-89.0444,"dy":0.0017,"dx":0.0017,"nx":28,"ny":28,"refTime":"2024-05-21T09:00:00:Z","depth":"2","parameterNumber":3,"parameterNumberName":"V-component_of_CURRENTS"},"data":[0,0,0,0,0,0,0,0,0,0,0,0,0,0,0,0,0,0,0,0,0,0,0,0,0,0,0,0,0,0,0,0,0,0,0,0,0,0,0,0,0,0,0,0,0,0,0,0,0,0,0,0,0,0,0,0,0,0,-0.0197,-0.0197,0,-0.0237,-0.0237,-0.0238,-0.0245,-0.0245,-0.0244,-0.0244,-0.0271,-0.0271,-0.0272,0,0,0,0,0,0,0,0,0,0,0,0,0,-0.0142,-0.0143,-0.0197,-0.0197,-0.0198,-0.0237,-0.0237,-0.0238,-0.0245,-0.0245,-0.0244,-0.0244,-0.027,-0.0271,-0.0272,0,0,0,0,0,0,0,0,0,0,0,0,0,-0.0172,-0.0143,-0.0197,-0.0207,-0.0208,-0.0237,-0.0237,-0.0238,-0.0245,-0.0245,-0.0244,-0.0244,-0.027,-0.0271,-0.0273,-0.0289,0,0,-0.0277,-0.0278,0,0,0,0,0,0,0,0,-0.017,-0.0173,-0.0205,-0.0206,-0.0208,-0.0236,-0.0228,-0.0255,-0.0245,-0.023,-0.0244,-0.0244,-0.0259,-0.0261,-0.0268,-0.029,-0.0291,-0.0277,-0.0278,-0.0279,-0.0279,0,0,0,0,0,0,0,-0.0168,-0.0172,-0.0212,-0.0205,-0.0207,-0.0215,-0.0219,-0.0233,-0.0245,-0.0231,-0.0232,-0.0238,-0.0259,-0.0267,-0.0269,-0.0292,-0.0277,-0.0278,-0.0279,-0.028,-0.0323,-0.0323,0,0,0,0,0,0,-0.0164,-0.017,-0.021,-0.0213,-0.0188,-0.0216,-0.022,-0.0227,-0.0245,-0.0248,-0.0239,-0.0238,-0.0265,-0.0267,-0.027,-0.0274,-0.0279,-0.028,-0.0281,-0.0323,-0.0323,-0.0323,0,0,0,0,0,0,-0.0163,-0.0168,-0.0209,-0.0193,-0.0199,-0.0218,-0.0225,-0.0228,-0.0236,-0.0251,-0.0253,-0.0244,-0.0265,-0.0268,-0.0281,-0.0275,-0.0281,-0.0282,-0.0322,-0.0323,-0.0323,-0.0292,0,0,0,0,0,0,-0.0161,-0.0167,-0.0167,-0.0193,-0.02,-0.0223,-0.0226,-0.0229,-0.0241,-0.0241,-0.0256,-0.0258,-0.0265,-0.0279,-0.0282,-0.0277,-0.0283,-0.0322,-0.0323,-0.0323,-0.0293,-0.0292,-0.029,0,0,0,0,0,-0.0159,-0.0157,-0.0167,-0.0172,-0.0201,-0.0223,-0.0227,-0.0238,-0.0241,-0.0244,-0.0254,-0.0258,-0.0285,-0.028,-0.0284,-0.028,-0.0322,-0.0322,-0.0323,-0.0293,-0.0292,-0.0291,0,0,0,0,0,0,-0.0131,-0.0159,-0.017,-0.0176,-0.0198,-0.0224,-0.0225,-0.024,-0.0252,-0.0247,-0.0263,-0.0266,-0.0276,-0.0287,-0.0281,-0.0296,-0.0304,-0.0305,-0.028,-0.0279,-0.0277,-0.0249,-0.0284,0,0,0,0,0,-0.0127,-0.0134,-0.0165,-0.017,-0.0178,-0.0204,-0.0213,-0.0224,-0.024,-0.0245,-0.0259,-0.0271,-0.0284,-0.0287,-0.0301,-0.0309,-0.0315,-0.031,-0.0309,-0.0308,-0.0289,-0.0298,-0.0296,-0.0326,-0.0326,-0.0326,0,0,-0.0117,-0.0134,-0.0138,-0.0165,-0.0179,-0.0182,-0.0208,-0.0219,-0.0218,-0.0246,-0.0245,-0.027,-0.0287,-0.0294,-0.0299,-0.0299,-0.0306,-0.0308,-0.0307,-0.0288,-0.0299,-0.0296,-0.0293,-0.0326,-0.0326,-0.0326,0,0,-0.0096,-0.0116,-0.0112,-0.0127,-0.015,-0.0166,-0.0171,-0.0199,-0.0205,-0.0219,-0.0235,-0.0255,-0.0277,-0.0284,-0.0291,-0.0293,-0.0303,-0.0303,-0.0268,-0.0278,-0.0275,-0.0272,-0.0287,-0.0286,-0.0298,-0.0298,-0.0298,0,-0.0082,-0.0082,-0.0115,-0.0112,-0.0115,-0.0157,-0.0147,-0.0163,-0.0192,-0.0189,-0.0212,-0.0243,-0.0268,-0.0263,-0.0267,-0.0288,-0.0296,-0.027,-0.0274,-0.0272,-0.027,-0.0285,-0.0285,-0.0296,-0.0297,-0.0297,-0.0297,0,-0.0056,-0.0055,-0.0053,-0.0062,-0.0072,-0.0072,-0.0098,-0.0104,-0.0126,-0.0144,-0.0156,-0.0197,-0.0209,-0.0231,-0.0251,-0.0246,-0.0259,-0.0275,-0.0272,-0.0264,-0.0282,-0.0282,-0.0294,-0.0295,-0.0295,-0.0296,0,0,-0.0023,-0.0031,-0.0029,-0.0017,-0.0042,-0.0043,-0.0039,-0.0044,-0.0025,-0.0074,-0.0055,-0.0108,-0.0136,-0.0146,-0.0181,-0.0196,-0.0207,-0.0225,-0.0226,-0.0229,-0.023,-0.0276,-0.028,-0.0222,-0.0222,-0.0221,-0.0252,0,0.001,0.0036,0.0018,0.0046,0.006,0.0033,0.0044,0.0034,0.0017,0.0022,-0.0028,-0.003,-0.0101,-0.0103,-0.0135,-0.0182,-0.0203,-0.0197,-0.0245,-0.0247,-0.028,-0.028,-0.024,-0.0267,-0.0252,-0.0252,-0.0252,0,0.0044,0.006,0.0095,0.0115,0.012,0.0129,0.0154,0.0159,0.0151,0.0139,0.0116,0.0076,0.0044,-0.0017,-0.0096,-0.0088,-0.0153,-0.0199,-0.0202,-0.0249,-0.0291,-0.0272,-0.0267,-0.0251,-0.0252,-0.0252,-0.0252,0,0.0094,0.0115,0.0151,0.0155,0.0167,0.0189,0.0199,0.02,0.023,0.0225,0.0244,0.018,0.0167,0.0076,-0.0044,-0.0062,-0.013,-0.0166,-0.0269,-0.0273,-0.0248,-0.0252,-0.0214,-0.0214,-0.0214,-0.0214,-0.0214,0,0.0136,0.0168,0.0182,0.0204,0.0259,0.0247,0.0303,0.0309,0.0338,0.0392,0.0312,0.0338,0.0192,0.0126,0.0002,-0.0133,-0.0099,-0.0255,-0.028,-0.0241,-0.0243,-0.0235,-0.0236,-0.0215,-0.0215,-0.0214,-0.0214,0,0.0181,0.0188,0.0235,0.0266,0.0283,0.0324,0.0381,0.0427,0.0441,0.0516,0.0527,0.0471,0.0379,0.0221,0.008,-0.0062,-0.0189,-0.0244,-0.0195,-0.0216,-0.0338,-0.0338,-0.036,-0.0361,-0.0363,-0.0364,-0.0365,0,0.0205,0.0233,0.0286,0.0326,0.0344,0.0401,0.0448,0.0479,0.0537,0.0603,0.0651,0.0591,0.0544,0.0296,0.0063,-0.0159,-0.019,-0.0285,-0.0323,-0.0328,-0.0351,-0.0349,-0.0347,-0.028,-0.028,-0.0281,-0.0281,0,0.0255,0.0271,0.0314,0.0397,0.0454,0.052,0.0593,0.066,0.0717,0.0774,0.0842,0.0817,0.0587,0.036,0.0037,-0.0111,-0.0254,-0.03,-0.0292,-0.0261,-0.0259,-0.028,-0.0279,-0.0283,-0.0283,-0.0283,-0.0282,-0.0282,0.0298,0.0337,0.0398,0.0472,0.0545,0.0641,0.0709,0.0787,0.0889,0.0973,0.0965,0.0926,0.0671,0.0256,-0.0003,-0.0271,-0.0271,-0.0373,-0.0369,-0.0366,-0.0362,-0.0364,-0.0407,-0.0408,-0.0408,-0.0408,-0.0409,0,0.0347,0.0397,0.0471,0.0563,0.0643,0.0685,0.0809,0.0863,0.0976,0.104,0.1069,0.084,0.0593,0.0314,-0.0081,-0.0344,-0.0344,-0.0421,-0.0356,-0.0352,-0.0349,-0.0344,-0.0384,-0.0385,-0.0386,-0.0386,0,0,0.0384,0.0456,0.0486,0.0622,0.0704,0.0838,0.0919,0.0972,0.1031,0.1054,0.1046,0.0997,0.068,0.0393,0.0061,-0.0156,-0.0198,-0.0201,-0.0192,-0.0072,-0.0066,-0.0293,-0.0277,0,0,0,0,0]}],[{"header":{"parameterUnit":"m.s-1","parameterCategory":2,"la1":30.2991,"la2":30.254,"lo1":-89.0895,"lo2":-89.0444,"dy":0.0017,"dx":0.0017,"nx":28,"ny":28,"refTime":"2024-05-21T09:00:00:Z","depth":"4","parameterNumber":2,"parameterNumberName":"U-component_of_CURRENTS"},"data":[0,0,0,0,0,0,0,0,0,0,0,0,0,0,0,0,0,0,0,0,0,0,0,0,0,0,0,0,0,0,0,0,0,0,0,0,0,0,0,0,0,0,0,0,0,0,0,0,0,0,0,0,0,0,0,0,0,0,0.1115,0.1115,0,0.1153,0.1153,0.1153,0.1185,0.1186,0.1187,0.1187,0.1238,0.1239,0.124,0,0,0,0,0,0,0,0,0,0,0,0,0,0.1094,0.1094,0.1115,0.1115,0.1116,0.1153,0.1153,0.1154,0.1185,0.1186,0.1187,0.1188,0.1238,0.1239,0.124,0,0,0,0,0,0,0,0,0,0,0,0,0,0.1111,0.1094,0.1114,0.1139,0.1142,0.1153,0.1153,0.1154,0.1185,0.1186,0.1187,0.1188,0.1238,0.1239,0.124,0.1226,0,0,0.1243,0.1244,0,0,0,0,0,0,0,0,0.111,0.1112,0.1135,0.1138,0.1141,0.1169,0.1165,0.118,0.1185,0.1165,0.1187,0.1188,0.1218,0.1221,0.122,0.1229,0.1231,0.1243,0.1244,0.1244,0.1245,0,0,0,0,0,0,0,0.1109,0.111,0.1126,0.1136,0.1139,0.1158,0.116,0.1168,0.1183,0.1167,0.117,0.118,0.1219,0.1219,0.1222,0.1232,0.1243,0.1244,0.1245,0.1245,0.1344,0.1346,0,0,0,0,0,0,0.1109,0.1109,0.1125,0.1128,0.1132,0.1157,0.116,0.1156,0.1182,0.1188,0.1179,0.1181,0.1217,0.122,0.1224,0.1308,0.1244,0.1245,0.1246,0.1342,0.1344,0.1346,0,0,0,0,0,0,0.1108,0.1109,0.1123,0.1123,0.1127,0.1157,0.1151,0.1156,0.1187,0.1192,0.1198,0.1209,0.1218,0.1222,0.1264,0.1307,0.1246,0.1247,0.134,0.1343,0.1345,0.1414,0,0,0,0,0,0,0.1107,0.1108,0.1124,0.1122,0.1127,0.115,0.1151,0.1156,0.1191,0.1195,0.1219,0.1223,0.1219,0.1262,0.1265,0.1307,0.1248,0.1337,0.1341,0.1344,0.1409,0.1419,0.1427,0,0,0,0,0,0.1106,0.1118,0.1124,0.1128,0.1141,0.1151,0.1155,0.1177,0.1192,0.1208,0.1232,0.1224,0.1288,0.1265,0.1267,0.1311,0.1335,0.134,0.1344,0.1405,0.1417,0.1427,0,0,0,0,0,0,0.1119,0.1123,0.113,0.1143,0.1157,0.1158,0.1184,0.1194,0.1223,0.1239,0.1241,0.1247,0.1292,0.1296,0.127,0.1352,0.1313,0.1318,0.1359,0.1369,0.1378,0.1378,0.1249,0,0,0,0,0,0.1128,0.1138,0.1143,0.1158,0.1168,0.1181,0.1197,0.1208,0.1226,0.1242,0.126,0.1286,0.1306,0.1335,0.134,0.1391,0.1399,0.1424,0.1433,0.144,0.1444,0.1489,0.1502,0.1361,0.1361,0.1361,0,0,0.1138,0.1143,0.115,0.1163,0.1176,0.1188,0.1193,0.1221,0.1249,0.1242,0.1297,0.1306,0.132,0.1368,0.1392,0.1387,0.149,0.1446,0.1452,0.1452,0.1495,0.1509,0.1521,0.1364,0.1363,0.1363,0,0,0.1155,0.1166,0.1182,0.1196,0.1224,0.122,0.1235,0.1254,0.1288,0.1327,0.1335,0.1378,0.1408,0.1438,0.1452,0.1518,0.1518,0.1529,0.1596,0.1641,0.1652,0.1663,0.171,0.1723,0.1555,0.1555,0.1555,0,0.117,0.1185,0.1191,0.1212,0.1236,0.1236,0.1263,0.1284,0.1319,0.1361,0.1356,0.1424,0.1439,0.151,0.154,0.1539,0.1564,0.1552,0.1652,0.1662,0.1671,0.1717,0.1731,0.1559,0.1558,0.1558,0.1558,0,0.1193,0.1218,0.1232,0.125,0.1272,0.1296,0.132,0.1355,0.1386,0.1412,0.149,0.151,0.1562,0.1577,0.158,0.1668,0.1665,0.1639,0.1621,0.169,0.1733,0.1747,0.1564,0.1563,0.1562,0.1561,0,0,0.1191,0.1238,0.1248,0.127,0.1303,0.1314,0.137,0.1421,0.1473,0.1512,0.1591,0.1637,0.1662,0.1682,0.1702,0.175,0.1846,0.1739,0.174,0.1781,0.1958,0.1826,0.1828,0.1842,0.1845,0.1846,0.1968,0,0.1213,0.1257,0.1282,0.1323,0.1344,0.1379,0.143,0.1482,0.153,0.1601,0.1653,0.1718,0.1701,0.1747,0.1792,0.1829,0.1883,0.1816,0.1889,0.1892,0.1762,0.1839,0.1854,0.1979,0.1982,0.1984,0.1986,0,0.1226,0.1257,0.1311,0.1371,0.1389,0.1416,0.1502,0.1556,0.1652,0.1703,0.1776,0.1805,0.1905,0.1862,0.1971,0.1934,0.1957,0.1971,0.1976,0.1833,0.1784,0.1892,0.201,0.2008,0.2006,0.2005,0.2003,0,0.1209,0.1274,0.132,0.134,0.1405,0.1456,0.1503,0.1597,0.1664,0.1784,0.1834,0.1929,0.1997,0.2037,0.2073,0.2044,0.2165,0.2126,0.2027,0.2019,0.2069,0.2057,0.2191,0.2191,0.219,0.219,0.219,0,0.1202,0.1239,0.1318,0.1338,0.1405,0.147,0.1559,0.1624,0.1735,0.1811,0.1898,0.1955,0.2043,0.211,0.2122,0.2122,0.2214,0.2051,0.2043,0.2098,0.2088,0.208,0.2066,0.2195,0.2194,0.2193,0.2192,0,0.1161,0.1217,0.1266,0.1357,0.1392,0.1447,0.1569,0.1627,0.1749,0.185,0.1897,0.2017,0.2108,0.2165,0.2249,0.218,0.2194,0.2165,0.2247,0.2239,0.2011,0.1999,0.2079,0.2076,0.2072,0.207,0.2068,0,0.1138,0.1162,0.1265,0.1301,0.1344,0.1436,0.1496,0.1622,0.1682,0.1861,0.1894,0.2033,0.2094,0.2116,0.218,0.2209,0.2166,0.2165,0.2057,0.2016,0.2002,0.1994,0.1987,0.2063,0.2062,0.2061,0.206,0,0.1088,0.1138,0.1178,0.1252,0.1315,0.1383,0.1478,0.1507,0.1659,0.178,0.1853,0.19,0.1995,0.2044,0.2083,0.2087,0.216,0.2132,0.2137,0.2036,0.1998,0.1984,0.198,0.205,0.2051,0.2052,0.2053,0,0.105,0.1065,0.1125,0.1183,0.1261,0.1302,0.1363,0.1432,0.1508,0.1693,0.1717,0.1856,0.1982,0.1982,0.2016,0.2017,0.1975,0.1892,0.1909,0.1922,0.1807,0.1731,0.171,0,0,0,0,0,0.1,0.1005,0.105,0.1104,0.1181,0.123,0.1335,0.1399,0.1537,0.1548,0.1628,0.1704,0.1764,0.1833,0.1802,0.1939,0.1978,0.1893,0.189,0.1991,0.2003,0.1879,0,0,0,0,0,0,0.0958,0.0994,0.1013,0.1029,0.1059,0.1131,0.1195,0.1291,0.1301,0.1447,0.149,0.1604,0.1686,0.1774,0.1773,0.1793,0.1755,0.1981,0.1976,0.1984,0.1995,0.2005,0.1881,0,0,0,0,0]},{"header":{"parameterUnit":"m.s-1","parameterCategory":2,"la1":30.2991,"la2":30.254,"lo1":-89.0895,"lo2":-89.0444,"dy":0.0017,"dx":0.0017,"nx":28,"ny":28,"refTime":"2024-05-21T09:00:00:Z","depth":"4","parameterNumber":3,"parameterNumberName":"V-component_of_CURRENTS"},"data":[0,0,0,0,0,0,0,0,0,0,0,0,0,0,0,0,0,0,0,0,0,0,0,0,0,0,0,0,0,0,0,0,0,0,0,0,0,0,0,0,0,0,0,0,0,0,0,0,0,0,0,0,0,0,0,0,0,0,-0.0045,-0.0045,0,-0.0107,-0.0107,-0.0108,-0.0149,-0.0149,-0.0149,-0.015,-0.0247,-0.0249,-0.0252,0,0,0,0,0,0,0,0,0,0,0,0,0,-0.0021,-0.0021,-0.0045,-0.0046,-0.0046,-0.0106,-0.0107,-0.0108,-0.0149,-0.0149,-0.015,-0.015,-0.0246,-0.0249,-0.0252,0,0,0,0,0,0,0,0,0,0,0,0,0,-0.0052,-0.0021,-0.0045,-0.0073,-0.0076,-0.0106,-0.0107,-0.0109,-0.0149,-0.0149,-0.015,-0.015,-0.0245,-0.0249,-0.0252,-0.0269,0,0,-0.0263,-0.0265,0,0,0,0,0,0,0,0,-0.005,-0.0053,-0.0068,-0.0071,-0.0075,-0.012,-0.0135,-0.0164,-0.0149,-0.0122,-0.015,-0.015,-0.0207,-0.0214,-0.0225,-0.0273,-0.0277,-0.0264,-0.0266,-0.0268,-0.0269,0,0,0,0,0,0,0,-0.0048,-0.0051,-0.007,-0.0069,-0.0073,-0.0103,-0.0107,-0.014,-0.0164,-0.0125,-0.0128,-0.0133,-0.0209,-0.0222,-0.0228,-0.0279,-0.0264,-0.0267,-0.0269,-0.0271,-0.0341,-0.0341,0,0,0,0,0,0,-0.0035,-0.0049,-0.0068,-0.0072,-0.0062,-0.0103,-0.0108,-0.0106,-0.0163,-0.0171,-0.0133,-0.0135,-0.0215,-0.0224,-0.0232,-0.0248,-0.0267,-0.0271,-0.0273,-0.0341,-0.0341,-0.0341,0,0,0,0,0,0,-0.0034,-0.0036,-0.0066,-0.0062,-0.0067,-0.0102,-0.01,-0.0107,-0.0122,-0.0168,-0.0177,-0.0141,-0.0216,-0.0227,-0.026,-0.0252,-0.0272,-0.0276,-0.0342,-0.0341,-0.0341,-0.0285,0,0,0,0,0,0,-0.0033,-0.0035,-0.0033,-0.006,-0.0067,-0.008,-0.01,-0.0108,-0.0124,-0.0127,-0.0178,-0.0187,-0.0217,-0.0254,-0.0263,-0.0258,-0.0279,-0.0342,-0.0342,-0.0341,-0.0287,-0.0282,-0.0278,0,0,0,0,0,-0.0032,-0.0026,-0.0032,-0.0035,-0.0061,-0.008,-0.0086,-0.0113,-0.0124,-0.0128,-0.0161,-0.0186,-0.0257,-0.0257,-0.0268,-0.0263,-0.0342,-0.0342,-0.0341,-0.0289,-0.0283,-0.0279,0,0,0,0,0,0,-0.0016,-0.003,-0.0038,-0.0036,-0.0055,-0.0086,-0.0093,-0.0111,-0.014,-0.0144,-0.0187,-0.0199,-0.0222,-0.0252,-0.025,-0.0281,-0.0302,-0.0303,-0.0258,-0.0253,-0.0249,-0.0232,-0.0282,0,0,0,0,0,-0.0009,-0.0007,-0.0028,-0.0027,-0.0034,-0.0062,-0.0075,-0.0091,-0.0119,-0.0132,-0.0166,-0.02,-0.0227,-0.0247,-0.0276,-0.0299,-0.0325,-0.0301,-0.0297,-0.0293,-0.0286,-0.0318,-0.0316,-0.0339,-0.0339,-0.0339,0,0,-0.0004,-0.0011,-0.0011,-0.0024,-0.004,-0.0042,-0.0071,-0.0084,-0.0087,-0.0139,-0.0156,-0.0187,-0.0229,-0.0249,-0.0262,-0.0275,-0.0301,-0.0292,-0.0289,-0.0284,-0.0317,-0.0315,-0.0313,-0.0338,-0.0338,-0.0338,0,0,0.0007,0.0004,0.0008,-0.0001,-0.0018,-0.003,-0.0031,-0.0059,-0.0073,-0.0093,-0.0126,-0.0152,-0.0199,-0.0224,-0.0243,-0.0235,-0.0274,-0.0245,-0.0215,-0.0245,-0.0244,-0.0243,-0.0272,-0.0274,-0.0246,-0.0246,-0.0246,0,0.0012,0.0019,0.0004,0.0007,0.0005,-0.0019,-0.0015,-0.003,-0.0066,-0.0076,-0.009,-0.0148,-0.0183,-0.0207,-0.0202,-0.0224,-0.0249,-0.023,-0.0239,-0.0239,-0.0239,-0.0269,-0.0272,-0.0243,-0.0243,-0.0244,-0.0244,0,0.0025,0.0031,0.0034,0.0036,0.0033,0.0032,0.0017,0.001,-0.0006,-0.0027,-0.0053,-0.0098,-0.0133,-0.0146,-0.0172,-0.0187,-0.0207,-0.0227,-0.025,-0.0233,-0.0266,-0.027,-0.0239,-0.024,-0.0241,-0.0241,0,0,0.0032,0.0041,0.0042,0.0053,0.005,0.0051,0.0053,0.0044,0.0046,0.0011,0.0004,-0.0039,-0.0066,-0.0089,-0.0126,-0.0152,-0.0172,-0.0184,-0.0187,-0.0208,-0.0241,-0.0238,-0.0243,-0.0195,-0.0196,-0.0196,-0.0264,0,0.0045,0.0065,0.0063,0.0087,0.0098,0.0089,0.0095,0.0085,0.0071,0.0059,0.0013,-0.0007,-0.0044,-0.0059,-0.009,-0.015,-0.0179,-0.0151,-0.0258,-0.0261,-0.0257,-0.0246,-0.0197,-0.0267,-0.0268,-0.0269,-0.027,0,0.0055,0.0071,0.0095,0.0121,0.0124,0.0136,0.015,0.0151,0.013,0.0116,0.0088,0.0049,0.0008,-0.0023,-0.0115,-0.0097,-0.0161,-0.0208,-0.0213,-0.0231,-0.0265,-0.029,-0.0277,-0.0277,-0.0276,-0.0276,-0.0275,0,0.0072,0.0094,0.012,0.0127,0.0149,0.0159,0.0172,0.0166,0.0178,0.0154,0.0156,0.0093,0.0068,-0.0015,-0.0114,-0.0117,-0.0216,-0.0238,-0.0298,-0.0299,-0.0306,-0.0307,-0.0303,-0.0303,-0.0303,-0.0302,-0.0302,0,0.0087,0.0108,0.0132,0.0148,0.0184,0.0187,0.022,0.022,0.0227,0.0247,0.0189,0.0184,0.007,-0.0002,-0.0099,-0.0206,-0.0211,-0.0287,-0.0313,-0.0281,-0.0279,-0.0309,-0.0309,-0.0305,-0.0304,-0.0304,-0.0304,0,0.0097,0.0112,0.0146,0.0178,0.0194,0.0219,0.0266,0.029,0.0289,0.0315,0.0312,0.0252,0.0158,0.0037,-0.01,-0.0178,-0.0288,-0.0329,-0.0281,-0.0305,-0.0354,-0.0351,-0.0396,-0.0397,-0.0397,-0.0397,-0.0398,0,0.0104,0.0121,0.0172,0.0201,0.0218,0.026,0.0295,0.0319,0.0351,0.0356,0.0371,0.0294,0.0236,0.0052,-0.0087,-0.0271,-0.0301,-0.036,-0.0358,-0.0341,-0.0363,-0.0358,-0.0354,-0.0398,-0.0398,-0.0398,-0.0399,0,0.0114,0.013,0.0161,0.0221,0.0266,0.0323,0.0375,0.0403,0.0432,0.0438,0.0427,0.033,0.0223,0.0067,-0.0078,-0.0213,-0.032,-0.0364,-0.0365,-0.0363,-0.0344,-0.0364,-0.036,-0.04,-0.04,-0.0399,-0.0399,0,0.0118,0.0138,0.018,0.0234,0.0297,0.0359,0.039,0.0433,0.0465,0.0477,0.047,0.0354,0.0291,0.0095,-0.0039,-0.0169,-0.0205,-0.0248,-0.0255,-0.0256,-0.0197,-0.0152,-0.0165,0,0,0,0,0,0.0114,0.0138,0.0191,0.0249,0.0315,0.035,0.0432,0.0459,0.0491,0.0498,0.0491,0.0394,0.0207,0.0121,-0.0007,-0.0069,-0.0247,-0.0226,-0.0304,-0.0407,-0.0405,-0.036,0,0,0,0,0,0,0.0107,0.015,0.0182,0.0253,0.029,0.0364,0.0415,0.0445,0.0452,0.0468,0.0374,0.0348,0.0163,0.0273,-0.0019,-0.0058,-0.0127,-0.0309,-0.0312,-0.0407,-0.0406,-0.0405,-0.0358,0,0,0,0,0]}]]